{"data":{"norad_id":53032,"epoch":"2026-05-25T02:10:50.990016Z","epoch_age_seconds":61208,"freshness":"FRESH","line1":"1 53032U 22076AY  26145.09086794 -.00000501  00000+0 -13372-4 0  9998","line2":"2 53032  53.2148 101.1421 0001286  76.9806 283.1330 15.08835375214520","mean_motion":15.08835375,"eccentricity":0.0001286,"inclination_deg":53.2148,"raan_deg":101.1421,"arg_perigee_deg":76.9806,"mean_anomaly_deg":283.133,"bstar":-1.3372e-5,"rev_number":21452,"period_min":95.43784722041,"perigee_km":538.86788453894,"apogee_km":540.64716701097,"semimajor_km":6917.894525775,"source":"CELESTRAK","updated_at":"2026-05-25T13:38:17.283611Z"}}